AUL110 UUEE-ULAA

Flight info

Callsign AUL110
Flight time 1h 38m
Altitude 37000
Route RILPO T753 DEGOP/K0804F360 T747 TIPNA P988 GITOT/K0817F370 P988 RUPAD T825 ABELU
Aircraft B738/M-SDRWY/L

Departure

Time 2026-05-07 06:03
Airport Sheremetyevo International Airport (UUEE)

Arrival

Time 2026-05-07 07:42
Airport Talagi Airport (ULAA)
Time Latitude Longitude Altitude Speed Heading
2026-05-07 05:38 55.96320 37.40269 637 ft 0 kts 165°
2026-05-07 05:50 55.96323 37.40268 637 ft 2 kts 165°
2026-05-07 05:50 55.96337 37.40260 637 ft 2 kts 165°
2026-05-07 05:51 55.96352 37.40254 637 ft 2 kts 165°
2026-05-07 05:51 55.96366 37.40247 637 ft 2 kts 165°
2026-05-07 05:51 55.96381 37.40240 637 ft 2 kts 169°
2026-05-07 05:51 55.96395 37.40238 637 ft 2 kts 180°
2026-05-07 05:52 55.96410 37.40239 637 ft 2 kts 188°
2026-05-07 05:52 55.96424 37.40243 637 ft 2 kts 186°
2026-05-07 05:52 55.96433 37.40245 637 ft 0 kts 186°
2026-05-07 05:54 55.96419 37.40241 637 ft 4 kts 194°
2026-05-07 05:54 55.96390 37.40184 637 ft 8 kts 244°
2026-05-07 05:55 55.96372 37.40066 637 ft 11 kts 271°
2026-05-07 05:55 55.96425 37.39969 637 ft 12 kts 343°
2026-05-07 05:55 55.96520 37.39922 637 ft 15 kts 344°
2026-05-07 05:55 55.96630 37.39870 637 ft 17 kts 351°
2026-05-07 05:56 55.96704 37.40002 637 ft 17 kts 75°
2026-05-07 05:56 55.96736 37.40221 637 ft 18 kts 73°
2026-05-07 05:56 55.96772 37.40458 637 ft 20 kts 74°
2026-05-07 05:56 55.96809 37.40710 637 ft 21 kts 74°
2026-05-07 05:57 55.96849 37.40971 637 ft 22 kts 75°
2026-05-07 05:57 55.96887 37.41227 637 ft 20 kts 75°
2026-05-07 05:57 55.96924 37.41472 637 ft 19 kts 75°
2026-05-07 05:57 55.96958 37.41702 637 ft 19 kts 75°
2026-05-07 05:58 55.96992 37.41930 637 ft 18 kts 74°
2026-05-07 05:58 55.97025 37.42151 637 ft 18 kts 75°
2026-05-07 05:58 55.97058 37.42370 637 ft 18 kts 75°
2026-05-07 05:58 55.97090 37.42588 637 ft 17 kts 75°
2026-05-07 05:59 55.97123 37.42801 637 ft 18 kts 75°
2026-05-07 05:59 55.97155 37.43018 637 ft 17 kts 75°
2026-05-07 05:59 55.97188 37.43235 637 ft 18 kts 75°
2026-05-07 05:59 55.97220 37.43451 637 ft 18 kts 75°
2026-05-07 06:00 55.97252 37.43662 637 ft 17 kts 74°
2026-05-07 06:00 55.97283 37.43872 637 ft 17 kts 75°
2026-05-07 06:00 55.97314 37.44078 637 ft 17 kts 74°
2026-05-07 06:00 55.97345 37.44288 637 ft 16 kts 70°
2026-05-07 06:01 55.97405 37.44400 637 ft 13 kts 18°
2026-05-07 06:01 55.97480 37.44400 637 ft 9 kts 345°
2026-05-07 06:01 55.97543 37.44364 637 ft 9 kts 322°
2026-05-07 06:01 55.97556 37.44250 637 ft 10 kts 264°
2026-05-07 06:02 55.97597 37.44184 637 ft 9 kts 345°
2026-05-07 06:02 55.97664 37.44153 637 ft 10 kts 345°
2026-05-07 06:02 55.97738 37.44118 637 ft 11 kts 344°
2026-05-07 06:02 55.97776 37.44014 637 ft 11 kts 259°
2026-05-07 06:03 55.97739 37.43762 637 ft 51 kts 255°
2026-05-07 06:03 55.97576 37.42668 637 ft 129 kts 254°
2026-05-07 06:03 55.97286 37.40737 680 ft 186 kts 252°
2026-05-07 06:03 55.96905 37.38535 1546 ft 185 kts 251°
2026-05-07 06:04 55.96583 37.36350 2370 ft 189 kts 253°
2026-05-07 06:04 55.96233 37.33987 2738 ft 210 kts 252°
2026-05-07 06:04 55.95821 37.31339 3105 ft 230 kts 252°
2026-05-07 06:04 55.95370 37.28458 3513 ft 254 kts 253°
2026-05-07 06:05 55.94904 37.25474 4562 ft 254 kts 253°
2026-05-07 06:05 55.94425 37.22427 5430 ft 262 kts 253°
2026-05-07 06:05 55.93932 37.19297 6365 ft 266 kts 254°
2026-05-07 06:05 55.93431 37.16083 7280 ft 270 kts 255°
2026-05-07 06:06 55.92928 37.12871 8173 ft 274 kts 255°
2026-05-07 06:06 55.92412 37.09610 9097 ft 276 kts 255°
2026-05-07 06:06 55.91913 37.06298 9845 ft 282 kts 259°
2026-05-07 06:06 55.91843 37.02777 9966 ft 285 kts 281°
2026-05-07 06:07 55.92641 36.99585 9957 ft 292 kts 307°
2026-05-07 06:07 55.94176 36.97212 10804 ft 297 kts 329°
2026-05-07 06:07 55.96030 36.96034 12094 ft 285 kts 350°
2026-05-07 06:07 55.98018 36.96338 12766 ft 298 kts 19°
2026-05-07 06:08 55.99771 36.98324 13588 ft 303 kts 37°
2026-05-07 06:08 56.01391 37.00720 14267 ft 308 kts 34°
2026-05-07 06:08 56.03109 37.03058 15027 ft 310 kts 34°
2026-05-07 06:08 56.04800 37.05419 15754 ft 313 kts 35°
2026-05-07 06:09 56.06503 37.07849 16457 ft 315 kts 35°
2026-05-07 06:09 56.08231 37.10319 17151 ft 317 kts 35°
2026-05-07 06:09 56.09937 37.12765 17812 ft 320 kts 35°
2026-05-07 06:09 56.11673 37.15261 18474 ft 322 kts 35°
2026-05-07 06:10 56.13441 37.17809 19126 ft 324 kts 35°
2026-05-07 06:10 56.15172 37.20306 19744 ft 326 kts 35°
2026-05-07 06:10 56.16948 37.22872 20334 ft 329 kts 35°
2026-05-07 06:10 56.18739 37.25464 20915 ft 332 kts 35°
2026-05-07 06:11 56.20524 37.28050 21484 ft 334 kts 35°
2026-05-07 06:11 56.22346 37.30694 22030 ft 337 kts 35°
2026-05-07 06:11 56.24173 37.33347 22566 ft 339 kts 35°
2026-05-07 06:11 56.26008 37.36016 23075 ft 342 kts 35°
2026-05-07 06:12 56.27861 37.38715 23598 ft 344 kts 35°
2026-05-07 06:12 56.29709 37.41410 24077 ft 347 kts 35°
2026-05-07 06:12 56.31594 37.44162 24550 ft 349 kts 35°
2026-05-07 06:12 56.33465 37.46898 25021 ft 351 kts 35°
2026-05-07 06:13 56.35360 37.49673 25476 ft 353 kts 35°
2026-05-07 06:13 56.37271 37.52475 25913 ft 356 kts 35°
2026-05-07 06:13 56.39191 37.55293 26353 ft 357 kts 35°
2026-05-07 06:13 56.41129 37.58142 26764 ft 360 kts 35°
2026-05-07 06:14 56.43064 37.60989 27170 ft 362 kts 35°
2026-05-07 06:14 56.45006 37.63851 27566 ft 364 kts 35°
2026-05-07 06:14 56.46978 37.66762 27933 ft 366 kts 36°
2026-05-07 06:14 56.48947 37.69673 28309 ft 368 kts 36°
2026-05-07 06:15 56.50935 37.72630 28698 ft 369 kts 36°
2026-05-07 06:15 56.52914 37.75588 29028 ft 372 kts 36°
2026-05-07 06:15 56.54911 37.78574 29346 ft 374 kts 36°
2026-05-07 06:15 56.56914 37.81556 29708 ft 375 kts 36°
2026-05-07 06:16 56.58919 37.84540 30027 ft 377 kts 36°
2026-05-07 06:16 56.60955 37.87580 30386 ft 378 kts 36°
2026-05-07 06:16 56.62980 37.90610 30673 ft 381 kts 36°
2026-05-07 06:16 56.65004 37.93642 30972 ft 382 kts 36°
2026-05-07 06:17 56.67072 37.96744 31233 ft 385 kts 36°
2026-05-07 06:17 56.69120 37.99819 31542 ft 386 kts 36°
2026-05-07 06:17 56.71178 38.02918 31839 ft 387 kts 36°
2026-05-07 06:17 56.73277 38.06077 32064 ft 390 kts 36°
2026-05-07 06:18 56.75349 38.09195 32376 ft 390 kts 36°
2026-05-07 06:18 56.77439 38.12339 32649 ft 392 kts 36°
2026-05-07 06:18 56.79542 38.15513 32940 ft 392 kts 36°
2026-05-07 06:18 56.81634 38.18674 33155 ft 395 kts 36°
2026-05-07 06:19 56.83764 38.21904 33425 ft 396 kts 36°
2026-05-07 06:19 56.85862 38.25104 33650 ft 397 kts 36°
2026-05-07 06:19 56.87994 38.28346 33911 ft 398 kts 36°
2026-05-07 06:19 56.90104 38.31560 34092 ft 401 kts 36°
2026-05-07 06:20 56.92237 38.34851 34323 ft 402 kts 36°
2026-05-07 06:20 56.94364 38.38206 34563 ft 403 kts 37°
2026-05-07 06:20 56.96468 38.41551 34762 ft 404 kts 37°
2026-05-07 06:20 56.98620 38.44924 34886 ft 408 kts 36°
2026-05-07 06:21 57.00787 38.48283 34994 ft 411 kts 36°
2026-05-07 06:21 57.02971 38.51680 35158 ft 414 kts 36°
2026-05-07 06:21 57.05170 38.55131 35327 ft 416 kts 36°
2026-05-07 06:21 57.07346 38.58569 35491 ft 418 kts 37°
2026-05-07 06:22 57.09558 38.62076 35641 ft 420 kts 37°
2026-05-07 06:22 57.13983 38.69055 36063 ft 421 kts 37°
2026-05-07 06:22 57.16201 38.72551 36369 ft 420 kts 37°
2026-05-07 06:23 57.18403 38.76054 36638 ft 418 kts 37°
2026-05-07 06:23 57.20600 38.79567 36881 ft 418 kts 37°
2026-05-07 06:23 57.22794 38.83072 37050 ft 419 kts 37°
2026-05-07 06:23 57.24996 38.86583 37051 ft 424 kts 37°
2026-05-07 06:24 57.29510 38.93866 37046 ft 431 kts 38°
2026-05-07 06:24 57.33959 39.01150 37047 ft 425 kts 37°
2026-05-07 06:25 57.38324 39.08306 37046 ft 418 kts 37°
2026-05-07 06:25 57.42679 39.15406 37047 ft 415 kts 37°
2026-05-07 06:26 57.47006 39.22460 37047 ft 416 kts 37°
2026-05-07 06:26 57.51376 39.29596 37046 ft 418 kts 37°
2026-05-07 06:27 57.55750 39.36612 37048 ft 418 kts 37°
2026-05-07 06:27 57.60134 39.43731 37048 ft 418 kts 37°
2026-05-07 06:28 57.64478 39.50813 37047 ft 418 kts 37°
2026-05-07 06:28 57.68830 39.57933 37047 ft 417 kts 37°
2026-05-07 06:29 57.73170 39.65097 37046 ft 418 kts 38°
2026-05-07 06:29 57.77478 39.72346 37045 ft 417 kts 38°
2026-05-07 06:30 57.81804 39.79533 37043 ft 416 kts 33°
2026-05-07 06:30 57.84261 39.82331 37051 ft 409 kts 21°
2026-05-07 06:30 57.86895 39.84356 37046 ft 407 kts 17°
2026-05-07 06:31 57.92341 39.86150 37051 ft 400 kts 354°
2026-05-07 06:31 57.97823 39.84300 37046 ft 401 kts 348°
2026-05-07 06:32 58.03286 39.82463 37046 ft 401 kts 349°
2026-05-07 06:32 58.08760 39.80614 37048 ft 401 kts 349°
2026-05-07 06:33 58.14247 39.78563 37046 ft 400 kts 348°
2026-05-07 06:33 58.19672 39.76461 37048 ft 401 kts 348°
2026-05-07 06:34 58.25122 39.74383 37047 ft 400 kts 348°
2026-05-07 06:34 58.30576 39.72310 37047 ft 400 kts 348°
2026-05-07 06:35 58.36034 39.70221 37047 ft 402 kts 348°
2026-05-07 06:35 58.41505 39.68237 37047 ft 400 kts 349°
2026-05-07 06:36 58.46955 39.66222 37048 ft 401 kts 348°
2026-05-07 06:36 58.52408 39.64180 37046 ft 401 kts 348°
2026-05-07 06:37 58.57872 39.62036 37045 ft 400 kts 348°
2026-05-07 06:37 58.63285 39.59842 37046 ft 400 kts 348°
2026-05-07 06:38 58.68722 39.57687 37046 ft 401 kts 348°
2026-05-07 06:38 58.74183 39.55771 37046 ft 401 kts 353°
2026-05-07 06:39 58.79748 39.54947 37049 ft 402 kts 355°
2026-05-07 06:39 58.85292 39.54019 37051 ft 401 kts 353°
2026-05-07 06:40 58.90871 39.53001 37055 ft 402 kts 353°
2026-05-07 06:40 58.96423 39.52024 37055 ft 405 kts 353°
2026-05-07 06:41 59.02049 39.51083 37056 ft 409 kts 354°
2026-05-07 06:41 59.07731 39.50158 37061 ft 412 kts 353°
2026-05-07 06:42 59.13425 39.49169 37067 ft 410 kts 353°
2026-05-07 06:42 59.19091 39.48194 37074 ft 409 kts 353°
2026-05-07 06:43 59.24788 39.47262 37076 ft 410 kts 353°
2026-05-07 06:43 59.30445 39.46340 37074 ft 410 kts 354°
2026-05-07 06:44 59.36135 39.45392 37073 ft 410 kts 354°
2026-05-07 06:44 59.41791 39.44442 37073 ft 411 kts 353°
2026-05-07 06:45 59.47458 39.43450 37072 ft 410 kts 353°
2026-05-07 06:45 59.53130 39.42525 37076 ft 411 kts 354°
2026-05-07 06:46 59.58852 39.41706 37073 ft 411 kts 354°
2026-05-07 06:46 59.64498 39.40760 37074 ft 410 kts 353°
2026-05-07 06:47 59.70205 39.39673 37074 ft 412 kts 353°
2026-05-07 06:47 59.75871 39.38628 37077 ft 410 kts 353°
2026-05-07 06:48 59.81498 39.37618 37075 ft 409 kts 353°
2026-05-07 06:48 59.87171 39.36363 37074 ft 411 kts 352°
2026-05-07 06:49 59.92823 39.34928 37073 ft 410 kts 351°
2026-05-07 06:49 59.98446 39.33555 37074 ft 409 kts 351°
2026-05-07 06:50 60.04113 39.32161 37074 ft 412 kts 351°
2026-05-07 06:50 60.09783 39.30832 37074 ft 410 kts 351°
2026-05-07 06:51 60.15435 39.29602 37074 ft 409 kts 352°
2026-05-07 06:51 60.21099 39.28370 37073 ft 410 kts 351°
2026-05-07 06:52 60.26725 39.26942 37073 ft 409 kts 350°
2026-05-07 06:52 60.32375 39.25409 37076 ft 410 kts 349°
2026-05-07 06:53 60.37964 39.23746 37072 ft 408 kts 349°
2026-05-07 06:53 60.43576 39.22131 37074 ft 408 kts 351°
2026-05-07 06:54 60.49232 39.20703 37072 ft 409 kts 351°
2026-05-07 06:54 60.54817 39.19225 37074 ft 407 kts 350°
2026-05-07 06:55 60.60450 39.17711 37075 ft 409 kts 350°
2026-05-07 06:55 60.66079 39.16120 37074 ft 410 kts 349°
2026-05-07 06:56 60.71673 39.14412 37074 ft 408 kts 349°
2026-05-07 06:56 60.77327 39.12775 37073 ft 409 kts 350°
2026-05-07 06:57 60.82956 39.11199 37074 ft 410 kts 350°
2026-05-07 06:57 60.88572 39.09598 37072 ft 410 kts 350°
2026-05-07 06:58 60.94205 39.08020 37075 ft 411 kts 350°
2026-05-07 06:58 60.99865 39.06516 37074 ft 412 kts 351°
2026-05-07 06:59 61.05542 39.05064 37072 ft 411 kts 350°
2026-05-07 06:59 61.11216 39.03529 37074 ft 414 kts 350°
2026-05-07 07:00 61.16906 39.01876 37073 ft 413 kts 348°
2026-05-07 07:00 61.22586 39.00126 37072 ft 415 kts 349°
2026-05-07 07:01 61.28307 38.99139 37076 ft 418 kts 357°
2026-05-07 07:01 61.34131 39.00372 37076 ft 421 kts
2026-05-07 07:02 61.39853 39.02758 37074 ft 420 kts
2026-05-07 07:02 61.45561 39.04901 37072 ft 417 kts
2026-05-07 07:03 61.51234 39.07093 37074 ft 418 kts
2026-05-07 07:03 61.56914 39.09311 37074 ft 415 kts
2026-05-07 07:04 61.62589 39.11566 37074 ft 414 kts
2026-05-07 07:04 61.68200 39.13846 37074 ft 415 kts
2026-05-07 07:05 61.73904 39.16176 37072 ft 416 kts
2026-05-07 07:05 61.79531 39.18496 37076 ft 415 kts
2026-05-07 07:06 61.85169 39.20768 37073 ft 410 kts
2026-05-07 07:06 61.90749 39.23115 37073 ft 413 kts
2026-05-07 07:07 61.96373 39.25684 37080 ft 415 kts
2026-05-07 07:07 62.01979 39.28202 37088 ft 412 kts
2026-05-07 07:08 62.07553 39.30782 37102 ft 413 kts
2026-05-07 07:08 62.13183 39.33502 37101 ft 416 kts
2026-05-07 07:09 62.18819 39.36166 37101 ft 413 kts
2026-05-07 07:09 62.24413 39.38811 37103 ft 413 kts
2026-05-07 07:10 62.30048 39.41385 37104 ft 415 kts
2026-05-07 07:10 62.35670 39.43971 37099 ft 414 kts
2026-05-07 07:11 62.41278 39.46619 37101 ft 414 kts
2026-05-07 07:11 62.46905 39.49266 37100 ft 416 kts
2026-05-07 07:12 62.52547 39.51789 37100 ft 414 kts
2026-05-07 07:12 62.58188 39.54319 37099 ft 414 kts
2026-05-07 07:13 62.63790 39.56888 37102 ft 414 kts
2026-05-07 07:13 62.69445 39.59561 37100 ft 415 kts
2026-05-07 07:14 62.75006 39.62292 36709 ft 409 kts
2026-05-07 07:14 62.77797 39.63705 36148 ft 406 kts
2026-05-07 07:14 62.80496 39.65042 35707 ft 400 kts 10°
2026-05-07 07:15 62.83211 39.66369 35243 ft 395 kts 10°
2026-05-07 07:15 62.85857 39.67681 34786 ft 391 kts 10°
2026-05-07 07:15 62.88502 39.68999 34336 ft 390 kts
2026-05-07 07:15 62.91153 39.70294 33872 ft 392 kts
2026-05-07 07:16 62.93797 39.71563 33401 ft 389 kts
2026-05-07 07:16 62.96390 39.72790 32925 ft 385 kts
2026-05-07 07:16 62.98998 39.74009 32468 ft 380 kts
2026-05-07 07:16 63.01556 39.75197 32021 ft 375 kts
2026-05-07 07:17 63.04076 39.76389 31578 ft 371 kts
2026-05-07 07:17 63.06586 39.77648 31143 ft 374 kts 10°
2026-05-07 07:17 63.09137 39.78907 30686 ft 374 kts
2026-05-07 07:17 63.11671 39.80065 30237 ft 369 kts
2026-05-07 07:18 63.14149 39.81202 29800 ft 365 kts
2026-05-07 07:18 63.16615 39.82384 29365 ft 361 kts
2026-05-07 07:18 63.19048 39.83582 28931 ft 357 kts
2026-05-07 07:18 63.21445 39.84764 28510 ft 361 kts
2026-05-07 07:19 63.23900 39.85969 28069 ft 361 kts
2026-05-07 07:19 63.26343 39.87203 27626 ft 357 kts 10°
2026-05-07 07:19 63.28727 39.88454 27198 ft 353 kts 10°
2026-05-07 07:19 63.31091 39.89691 26773 ft 349 kts 10°
2026-05-07 07:20 63.33432 39.90871 26355 ft 344 kts
2026-05-07 07:20 63.35737 39.91969 25943 ft 344 kts
2026-05-07 07:20 63.38109 39.93106 25516 ft 348 kts
2026-05-07 07:20 63.40431 39.94251 25092 ft 344 kts
2026-05-07 07:21 63.42743 39.95384 24661 ft 340 kts
2026-05-07 07:21 63.45025 39.96577 24245 ft 337 kts 13°
2026-05-07 07:21 63.47250 39.98207 23832 ft 335 kts 17°
2026-05-07 07:21 63.49403 39.99943 23431 ft 334 kts 16°
2026-05-07 07:22 63.51626 40.01640 23017 ft 338 kts 15°
2026-05-07 07:22 63.53834 40.03299 22603 ft 334 kts 15°
2026-05-07 07:22 63.56012 40.04956 22197 ft 330 kts 16°
2026-05-07 07:22 63.58158 40.06601 21799 ft 327 kts 16°
2026-05-07 07:23 63.60290 40.08244 21401 ft 323 kts 16°
2026-05-07 07:23 63.62411 40.09876 21010 ft 323 kts 16°
2026-05-07 07:23 63.64545 40.11498 20609 ft 326 kts 16°
2026-05-07 07:23 63.66677 40.13130 20206 ft 322 kts 16°
2026-05-07 07:24 63.68766 40.14737 19814 ft 318 kts 16°
2026-05-07 07:24 63.70831 40.16325 19417 ft 315 kts 16°
2026-05-07 07:24 63.72886 40.18061 19019 ft 313 kts 21°
2026-05-07 07:24 63.74804 40.20261 18628 ft 314 kts 26°
2026-05-07 07:25 63.78651 40.24977 17861 ft 314 kts 26°
2026-05-07 07:25 63.80550 40.27320 17479 ft 310 kts 26°
2026-05-07 07:25 63.82427 40.29664 17100 ft 307 kts 26°
2026-05-07 07:26 63.84287 40.31995 16723 ft 304 kts 26°
2026-05-07 07:26 63.86142 40.34325 16350 ft 306 kts 26°
2026-05-07 07:26 63.87987 40.36647 15972 ft 307 kts 26°
2026-05-07 07:26 63.89830 40.38978 15594 ft 303 kts 26°
2026-05-07 07:27 63.91679 40.41318 15216 ft 300 kts 26°
2026-05-07 07:27 63.93469 40.43586 14850 ft 297 kts 27°
2026-05-07 07:27 63.95252 40.45849 14485 ft 294 kts 27°
2026-05-07 07:27 63.97057 40.48142 14119 ft 296 kts 27°
2026-05-07 07:28 63.98856 40.50431 13745 ft 297 kts 27°
2026-05-07 07:28 64.00633 40.52698 13378 ft 293 kts 27°
2026-05-07 07:28 64.02408 40.54966 13012 ft 290 kts 27°
2026-05-07 07:28 64.04162 40.57209 12649 ft 287 kts 27°
2026-05-07 07:29 64.05896 40.59430 12291 ft 285 kts 27°
2026-05-07 07:29 64.07600 40.61615 11941 ft 286 kts 27°
2026-05-07 07:29 64.09347 40.63859 11576 ft 287 kts 27°
2026-05-07 07:29 64.11085 40.66094 11213 ft 284 kts 28°
2026-05-07 07:30 64.12795 40.68298 10856 ft 281 kts 28°
2026-05-07 07:30 64.14492 40.70487 10502 ft 279 kts 28°
2026-05-07 07:30 64.16166 40.72649 10152 ft 276 kts 28°
2026-05-07 07:30 64.17804 40.74769 9981 ft 267 kts 28°
2026-05-07 07:31 64.19438 40.76884 9609 ft 272 kts 28°
2026-05-07 07:31 64.21063 40.78994 9272 ft 270 kts 28°
2026-05-07 07:31 64.22683 40.81098 8940 ft 267 kts 28°
2026-05-07 07:31 64.24294 40.83193 8611 ft 264 kts 28°
2026-05-07 07:32 64.25875 40.85253 8288 ft 262 kts 28°
2026-05-07 07:32 64.27452 40.87309 7964 ft 259 kts 28°
2026-05-07 07:32 64.29013 40.89349 7641 ft 257 kts 28°
2026-05-07 07:32 64.30571 40.91385 7324 ft 260 kts 28°
2026-05-07 07:33 64.32132 40.93428 6995 ft 258 kts 28°
2026-05-07 07:33 64.33675 40.95452 6674 ft 256 kts 28°
2026-05-07 07:33 64.35218 40.97479 6357 ft 253 kts 28°
2026-05-07 07:33 64.36729 40.99464 6045 ft 254 kts 28°
2026-05-07 07:34 64.38272 41.01494 5723 ft 256 kts 28°
2026-05-07 07:34 64.39816 41.03530 5395 ft 253 kts 28°
2026-05-07 07:34 64.41323 41.05519 5078 ft 251 kts 28°
2026-05-07 07:34 64.42832 41.07513 4812 ft 246 kts 28°
2026-05-07 07:35 64.44277 41.09427 4719 ft 234 kts 27°
2026-05-07 07:35 64.45664 41.11264 4645 ft 229 kts 27°
2026-05-07 07:35 64.47027 41.13070 4560 ft 224 kts 27°
2026-05-07 07:35 64.48468 41.14347 4366 ft 219 kts
2026-05-07 07:36 64.49947 41.14703 4131 ft 216 kts
2026-05-07 07:36 64.51439 41.15094 3833 ft 217 kts
2026-05-07 07:36 64.52934 41.15509 3568 ft 215 kts
2026-05-07 07:36 64.54401 41.15917 3324 ft 209 kts
2026-05-07 07:37 64.55790 41.16172 3153 ft 192 kts 353°
2026-05-07 07:37 64.56959 41.15254 3013 ft 172 kts 324°
2026-05-07 07:37 64.57598 41.13051 2917 ft 164 kts 284°
2026-05-07 07:37 64.57830 41.10457 2761 ft 166 kts 283°
2026-05-07 07:38 64.58081 41.07849 2616 ft 163 kts 283°
2026-05-07 07:38 64.58295 41.05330 2448 ft 155 kts 279°
2026-05-07 07:38 64.58438 41.02836 2307 ft 155 kts 278°
2026-05-07 07:38 64.58573 41.00365 2174 ft 154 kts 277°
2026-05-07 07:39 64.58702 40.97896 2047 ft 153 kts 278°
2026-05-07 07:39 64.58827 40.95459 1885 ft 150 kts 276°
2026-05-07 07:39 64.58948 40.93158 1700 ft 140 kts 277°
2026-05-07 07:39 64.59058 40.90938 1502 ft 138 kts 277°
2026-05-07 07:40 64.59171 40.88704 1323 ft 137 kts 276°
2026-05-07 07:40 64.59280 40.86494 1136 ft 137 kts 277°
2026-05-07 07:40 64.59393 40.84298 952 ft 137 kts 278°
2026-05-07 07:40 64.59506 40.82100 768 ft 137 kts 278°
2026-05-07 07:41 64.59612 40.79901 586 ft 137 kts 278°
2026-05-07 07:41 64.59727 40.77730 408 ft 136 kts 277°
2026-05-07 07:41 64.59849 40.75542 216 ft 136 kts 275°
2026-05-07 07:41 64.59937 40.73371 81 ft 129 kts 276°
2026-05-07 07:42 64.60029 40.71693 71 ft 68 kts 276°
2026-05-07 07:42 64.60062 40.70980 71 ft 31 kts 276°
2026-05-07 07:42 64.60085 40.70530 71 ft 26 kts 277°
2026-05-07 07:42 64.60100 40.70226 71 ft 8 kts 253°
2026-05-07 07:43 64.60047 40.70200 71 ft 10 kts 172°
2026-05-07 07:43 64.59968 40.70188 71 ft 13 kts 187°
2026-05-07 07:43 64.59887 40.70228 71 ft 12 kts 111°
2026-05-07 07:43 64.59875 40.70434 71 ft 13 kts 96°
2026-05-07 07:44 64.59865 40.70655 71 ft 14 kts 96°
2026-05-07 07:44 64.59854 40.70891 71 ft 15 kts 96°
2026-05-07 07:44 64.59806 40.71024 71 ft 12 kts 188°
2026-05-07 07:44 64.59738 40.71082 71 ft 11 kts 109°
2026-05-07 07:45 64.59727 40.71280 71 ft 12 kts 96°
2026-05-07 07:45 64.59719 40.71426 71 ft 5 kts 103°
2026-05-07 07:45 64.59696 40.71464 71 ft 4 kts 174°
2026-05-07 07:45 64.59673 40.71463 71 ft 2 kts 184°
2026-05-07 07:46 64.59667 40.71462 71 ft 0 kts 185°